[[{"header":{"parameterUnit":"m.s-1","parameterCategory":1,"la1":30.2992,"la2":30.254,"lo1":-89.0895,"lo2":-89.0443,"dy":0.0025,"dx":0.0025,"nx":19,"ny":19,"refTime":"2026-03-12T03:00:00:Z","depth":0,"parameterNumber":2,"parameterNumberName":"U-component_of_WINDS"},"data":[0,0,0,-0.9644,-0.9643,-0.9625,-0.9624,-0.961,-0.961,0,0,0,0,0,0,0,0,0,0,0,-0.9655,-0.9655,-0.9644,-0.9643,-0.9625,-0.9624,-0.961,-0.961,0,0,0,0,0,0,0,0,0,0,0,-0.9655,-0.9655,-0.9655,-0.9643,-0.9625,-0.9624,-0.961,-0.9621,0,0,0,0,0,0,0,0,0,0,-0.9637,-0.9653,-0.9655,-0.9655,-0.9643,-0.9625,-0.9624,-0.9621,-0.962,-0.9622,0,-0.9626,0,-0.9618,-0.9609,-0.9609,0,0,0,-0.9639,-0.9654,-0.9644,-0.9655,-0.9643,-0.9625,-0.9632,-0.962,-0.9619,-0.9621,-0.9625,-0.9625,-0.9617,-0.9609,-0.9609,-0.9635,-0.9636,0,0,-0.964,-0.9655,-0.9645,-0.9644,-0.9647,-0.9633,-0.9631,-0.9619,-0.9625,-0.9625,-0.9624,-0.9617,-0.9609,-0.9609,-0.9635,-0.9635,0,0,0,-0.9646,-0.9656,-0.9645,-0.9644,-0.964,-0.9632,-0.9631,-0.9626,-0.9621,-0.9624,-0.9617,-0.9609,-0.9609,-0.9635,-0.9635,-0.9664,0,0,0,-0.9647,-0.9659,-0.9646,-0.9655,-0.9641,-0.9633,-0.9638,-0.9622,-0.962,-0.9617,-0.9609,-0.9609,-0.9634,-0.9635,-0.9663,-0.9676,0,0,0,-0.9654,-0.966,-0.9659,-0.9656,-0.9648,-0.9633,-0.9627,-0.9621,-0.9616,-0.9609,-0.9609,-0.9634,-0.9635,-0.9661,-0.9673,-0.9686,0,0,0,-0.9667,-0.9686,-0.966,-0.9678,-0.9648,-0.9651,-0.9627,-0.9629,-0.9626,-0.9609,-0.9634,-0.9635,-0.9661,-0.9672,-0.9685,-0.9699,-0.9707,0,0,-0.9699,-0.969,-0.97,-0.9676,-0.9687,-0.9653,-0.9667,-0.9652,-0.9638,-0.9637,-0.9638,-0.9663,-0.9673,-0.9686,-0.9744,-0.9751,0,0,0,-0.9715,-0.9722,-0.9721,-0.9719,-0.9707,-0.9698,-0.9678,-0.9672,-0.967,-0.9641,-0.9671,-0.9676,-0.9683,-0.969,-0.9695,-0.97,-0.9639,-0.9639,-0.9639,-0.9781,-0.9762,-0.9776,-0.9754,-0.9753,-0.9732,-0.9729,-0.9717,-0.9699,-0.9706,-0.9706,-0.9744,-0.9752,-0.9755,-0.9761,-0.9712,-0.9712,-0.9712,-0.9713,-0.9826,-0.9832,-0.9807,-0.9811,-0.9791,-0.9795,-0.9775,-0.9762,-0.9763,-0.9743,-0.9748,-0.9727,-0.9763,-0.9766,-0.9715,-0.9714,-0.9714,-0.9714,-0.9714,-0.9867,-0.9866,-0.9858,-0.9852,-0.985,-0.9828,-0.9829,-0.9811,-0.9794,-0.9799,-0.9796,-0.9795,-0.9792,-0.9799,-0.9799,-0.9799,-0.9799,-0.9799,-0.9799,-0.9912,-0.9902,-0.9905,-0.9893,-0.9889,-0.9881,-0.986,-0.9855,-0.9845,-0.9832,-0.9831,-0.9812,-0.977,-0.9759,-0.9801,-0.9801,-0.98,-0.98,-0.98,-0.9965,-0.9949,-0.9955,-0.995,-0.9934,-0.9933,-0.9909,-0.9901,-0.9894,-0.9895,-0.9875,-0.9846,-0.9836,-0.9832,-0.9823,-0.9879,-0.9879,-0.9879,-0.9879,-0.9999,-0.9992,-0.9992,-0.9986,-0.9978,-0.9957,-0.9963,-0.9946,-0.9927,-0.9921,-0.991,-0.9897,-0.9894,-0.9886,-0.988,-0.9872,-0.9939,-0.9939,-0.9939,-1.003,-1.0021,-1.003,-1.001,-0.9995,-0.9984,-0.9988,-0.9983,-0.9957,-0.9941,-0.9917,-0.9914,-0.9892,-0.9886,-0.987,-0.9862,-0.9846,0,0]},{"header":{"parameterUnit":"m.s-1","parameterCategory":1,"la1":30.2992,"la2":30.254,"lo1":-89.0895,"lo2":-89.0443,"dy":0.0025,"dx":0.0025,"nx":19,"ny":19,"refTime":"2026-03-12T03:00:00:Z","depth":0,"parameterNumber":3,"parameterNumberName":"V-component_of_WINDS"},"data":[0,0,0,2.037,2.0371,2.0396,2.0396,2.0428,2.0428,0,0,0,0,0,0,0,0,0,0,0,2.0364,2.0364,2.037,2.0371,2.0396,2.0396,2.0428,2.0428,0,0,0,0,0,0,0,0,0,0,0,2.0364,2.0364,2.0365,2.0371,2.0396,2.0396,2.0428,2.0409,0,0,0,0,0,0,0,0,0,0,2.0384,2.038,2.0364,2.0365,2.0371,2.0396,2.0396,2.0408,2.041,2.0417,0,2.0424,0,2.0427,2.043,2.0431,0,0,0,2.037,2.0378,2.0384,2.0365,2.0372,2.0396,2.0384,2.0409,2.0411,2.042,2.0425,2.0426,2.0427,2.0431,2.0431,2.0476,2.0476,0,0,2.0369,2.0369,2.0382,2.0386,2.0383,2.0384,2.0385,2.041,2.0416,2.0425,2.0427,2.0428,2.0431,2.0431,2.0476,2.0476,0,0,0,2.0365,2.0368,2.0373,2.0384,2.0389,2.0384,2.0386,2.0415,2.0416,2.0427,2.0428,2.0431,2.0432,2.0476,2.0476,2.0488,0,0,0,2.0364,2.0366,2.0373,2.0373,2.0389,2.0402,2.039,2.0415,2.0417,2.0428,2.0431,2.0432,2.0475,2.0476,2.0487,2.0494,0,0,0,2.0362,2.0366,2.037,2.0373,2.0384,2.0402,2.0405,2.0415,2.0418,2.0431,2.0432,2.0475,2.0476,2.0487,2.0493,2.0505,0,0,0,2.0359,2.0381,2.037,2.0395,2.0384,2.041,2.0405,2.0424,2.0437,2.0431,2.0475,2.0476,2.0486,2.0492,2.0504,2.0514,2.0519,0,0,2.0387,2.0385,2.0399,2.039,2.0418,2.0406,2.0436,2.0447,2.0447,2.0466,2.0467,2.0488,2.0492,2.0505,2.0548,2.0552,0,0,0,2.0408,2.0418,2.0426,2.0438,2.0447,2.0454,2.046,2.0464,2.048,2.0458,2.0496,2.0499,2.0506,2.0511,2.0514,2.0519,2.0479,2.0478,2.0478,2.0448,2.0447,2.0471,2.0473,2.0484,2.049,2.0499,2.0504,2.0501,2.051,2.0515,2.0542,2.0548,2.055,2.0556,2.0522,2.0522,2.0522,2.0522,2.0487,2.0501,2.0495,2.0516,2.0515,2.0532,2.0537,2.0534,2.0549,2.0538,2.0544,2.0532,2.0554,2.0559,2.0523,2.0523,2.0523,2.0523,2.0523,2.0512,2.0518,2.0523,2.0539,2.0551,2.0552,2.0566,2.0565,2.0564,2.057,2.0574,2.0574,2.0573,2.0573,2.0573,2.0573,2.0573,2.0573,2.0573,2.0536,2.054,2.0552,2.0563,2.0569,2.0578,2.0583,2.0589,2.0595,2.0593,2.0593,2.0588,2.0557,2.0549,2.0574,2.0574,2.0574,2.0574,2.0574,2.0574,2.0565,2.0583,2.059,2.0601,2.0612,2.0611,2.0623,2.0628,2.0634,2.0628,2.0606,2.0603,2.06,2.0593,2.0629,2.0629,2.0629,2.0629,2.0593,2.0592,2.061,2.062,2.063,2.063,2.065,2.0654,2.0656,2.0659,2.0653,2.0644,2.0642,2.064,2.0637,2.063,2.0674,2.0674,2.0674,2.0616,2.0615,2.0633,2.0635,2.0643,2.065,2.0668,2.0679,2.068,2.0676,2.066,2.0658,2.0643,2.0639,2.0634,2.0629,2.0616,0,0]}]]